Location: Observatory Park - Geauga Park District
(41.5832°N, 81.0716°W)
Time: 02:12:08
(UTC-04:00)

Tiangong - Pass Details

Date: 28 September 2021
Orbit: 382 x 385 km, 41.5° (Epoch: 16 October)

Event Time Altitude Azimuth Distance (km) Brightness Sun altitude
Exits shadow 05:44:48 36° 181° (S) 621 1.9 -18.2°
Maximum altitude 05:45:14 38° 159° (SSE) 594 2.0 -18.1°
Drops below altitude 10° 05:48:11 10° 89° (E) 1,393 5.1 -17.5°
Sets 05:50:19 0° 81° (E) 2,247 6.7 -17.2°
